{"data":{"norad_id":69660,"intl_designator":"2026-143M","name":"STARLINK-37556","alt_names":[],"object_type":"PAYLOAD","status":"ACTIVE","operator":null,"country":"US","launch_date":"2026-06-21","launch_site_code":"AFWTR","launch_vehicle":null,"mission":null,"orbit_class":"UNKNOWN","rcs_meters":null,"size_class":null,"mass_kg":null,"dimensions":null,"purposes":["comms"],"wikipedia_slug":null,"has_3d_model":false,"image_url":null,"decayed_at":null,"tle_current":{"epoch":"2026-09-19T08:45:52.586208Z","epoch_age_seconds":119712,"freshness":"FRESH","line1":"1 69660U 26143M   26262.36519197  .00010842  00000+0  33784-3 0  9994","line2":"2 69660  97.2816 305.4947 0001242  76.5475 283.5906 15.33428090 14976","mean_motion":15.3342809,"eccentricity":0.0001242,"inclination_deg":97.2816,"raan_deg":305.4947,"arg_perigee_deg":76.5475,"mean_anomaly_deg":283.5906,"bstar":0.00033784,"rev_number":1497,"period_min":93.907240214962,"perigee_km":464.74349587678,"apogee_km":466.4434785298,"semimajor_km":6843.7304872033,"source":"CELESTRAK","updated_at":"2026-09-20T09:00:44.249075Z"}}}